When you browse on this site, cookies collect data to enhance your experience and personalize the content and advertising you see.
Visit our Privacy Policy to learn more. By continuing to use the site, you agree to this use of cookies and data.
  • In Hungary
  • List of Countries
  • For 7 days
  • Water Temperature
  • Satellite Maps
  • Weather Map
  • News
  • Weather Widgets
  • user-avatar
    Login

    Hourly Weather Falemychi

    Today, 11 December, Tuesday

    Time Temperature Precipitation Wind Pressure Humidity
    00:00 -1°C° 0 mm 4 mps 738 mmHg 89%
    01:00 -1°C° 0 mm 4 mps 738 mmHg 90%
    02:00 -2°C° 0 mm 4 mps 739 mmHg 90%
    03:00 -1°C° 0 mm 3 mps 739 mmHg 91%
    04:00 -1°C° 0 mm 3 mps 739 mmHg 93%
    05:00 -1°C° 0 mm 3 mps 739 mmHg 94%
    06:00 -2°C° 0 mm 3 mps 739 mmHg 94%
    07:00 -2°C° 0 mm 3 mps 740 mmHg 95%
    08:00 -2°C° 0 mm 2 mps 740 mmHg 95%
    09:00 -1°C° 0 mm 3 mps 740 mmHg 91%
    10:00 0°C° 0 mm 3 mps 741 mmHg 86%
    11:00 0°C° 0 mm 3 mps 741 mmHg 82%
    12:00 0°C° 0 mm 3 mps 741 mmHg 79%
    13:00 +2°C° 0 mm 2 mps 741 mmHg 77%
    14:00 +2°C° 0 mm 2 mps 741 mmHg 74%
    15:00 +1°C° 0 mm 2 mps 741 mmHg 76%
    16:00 +2°C° 0 mm 1 mps 742 mmHg 78%
    17:00 +1°C° 0 mm 1 mps 742 mmHg 79%
    18:00 +1°C° 0 mm 1 mps 742 mmHg 80%
    19:00 +1°C° 0 mm 1 mps 742 mmHg 82%
    20:00 0°C° 0 mm 1 mps 742 mmHg 83%
    21:00 0°C° 0 mm 1 mps 742 mmHg 83%
    22:00 -2°C° 0 mm 2 mps 743 mmHg 83%
    23:00 -2°C° 0 mm 2 mps 743 mmHg 83%

    Tomorrow, 12 December, Wednesday

    Time Temperature Precipitation Wind Pressure Humidity
    00:00 -2°C° 0 mm 2 mps 743 mmHg 84%
    01:00 -2°C° 0 mm 2 mps 743 mmHg 84%
    02:00 -2°C° 0 mm 2 mps 743 mmHg 85%
    03:00 -2°C° 0 mm 2 mps 743 mmHg 85%
    04:00 0°C° 0 mm 1 mps 743 mmHg 86%
    05:00 0°C° 0 mm 1 mps 743 mmHg 86%
    06:00 -1°C° 0 mm 1 mps 744 mmHg 86%
    07:00 -1°C° 0 mm 1 mps 744 mmHg 86%
    08:00 -3°C° 0 mm 2 mps 744 mmHg 85%
    09:00 -2°C° 0 mm 2 mps 744 mmHg 81%
    10:00 -1°C° 0 mm 2 mps 745 mmHg 77%
    11:00 -1°C° 0 mm 2 mps 745 mmHg 73%
    12:00 -1°C° 0 mm 3 mps 745 mmHg 72%
    13:00 0°C° 0 mm 3 mps 745 mmHg 71%
    14:00 -1°C° 0 mm 4 mps 745 mmHg 70%
    15:00 -1°C° 0 mm 4 mps 745 mmHg 74%
    16:00 -2°C° 0 mm 4 mps 745 mmHg 79%
    17:00 -2°C° 0 mm 4 mps 745 mmHg 84%
    18:00 -2°C° 0.1 mm 4 mps 745 mmHg 86%
    19:00 -2°C° 0.1 mm 4 mps 745 mmHg 88%
    20:00 -2°C° 0.1 mm 4 mps 745 mmHg 90%
    21:00 -2°C° 0.3 mm 5 mps 745 mmHg 90%
    22:00 -2°C° 0.3 mm 5 mps 745 mmHg 90%
    23:00 -2°C° 0.3 mm 5 mps 744 mmHg 91%

    Day after tomorrow, 13 December, Thursday

    Time Temperature Precipitation Wind Pressure Humidity
    00:00 -2°C° 0.6 mm 5 mps 744 mmHg 91%
    01:00 -2°C° 0.6 mm 5 mps 744 mmHg 91%
    02:00 -2°C° 0.6 mm 5 mps 744 mmHg 92%
    03:00 -2°C° 0.6 mm 5 mps 744 mmHg 92%
    04:00 -2°C° 0.6 mm 5 mps 744 mmHg 93%
    05:00 -2°C° 0.6 mm 5 mps 744 mmHg 93%
    06:00 -2°C° 0.5 mm 5 mps 744 mmHg 93%
    07:00 -2°C° 0.5 mm 5 mps 744 mmHg 93%
    08:00 -2°C° 0.5 mm 5 mps 744 mmHg 93%
    09:00 -2°C° 0.4 mm 5 mps 744 mmHg 93%
    10:00 -2°C° 0.4 mm 5 mps 744 mmHg 93%
    11:00 -2°C° 0.4 mm 5 mps 744 mmHg 92%
    12:00 -2°C° 0.3 mm 4 mps 744 mmHg 92%
    13:00 -2°C° 0.3 mm 4 mps 744 mmHg 92%
    14:00 -2°C° 0.3 mm 4 mps 744 mmHg 93%
    15:00 -2°C° 0.3 mm 4 mps 744 mmHg 93%
    16:00 -2°C° 0.3 mm 4 mps 744 mmHg 93%
    17:00 -2°C° 0.3 mm 4 mps 744 mmHg 93%
    18:00 -2°C° 0.2 mm 4 mps 745 mmHg 94%
    19:00 -2°C° 0.2 mm 4 mps 745 mmHg 94%
    20:00 -2°C° 0.2 mm 4 mps 745 mmHg 94%
    21:00 -2°C° 0.1 mm 4 mps 745 mmHg 94%
    22:00 -1°C° 0.1 mm 3 mps 746 mmHg 94%
    23:00 -1°C° 0.1 mm 3 mps 746 mmHg 94%

    14 December, Friday

    Time Temperature Precipitation Wind Pressure Humidity
    00:00 -2°C° 0.1 mm 3 mps 746 mmHg 95%
    01:00 -2°C° 0.1 mm 3 mps 746 mmHg 95%
    02:00 -2°C° 0.1 mm 3 mps 746 mmHg 95%
    03:00 -2°C° 0.1 mm 3 mps 746 mmHg 95%
    04:00 -2°C° 0.1 mm 3 mps 746 mmHg 96%
    05:00 -2°C° 0.1 mm 3 mps 746 mmHg 96%
    06:00 -2°C° 0.1 mm 3 mps 747 mmHg 96%
    07:00 -2°C° 0.1 mm 2 mps 747 mmHg 96%
    08:00 -3°C° 0.1 mm 2 mps 747 mmHg 96%
    09:00 -2°C° 0 mm 2 mps 747 mmHg 95%
    10:00 -2°C° 0 mm 2 mps 748 mmHg 95%
    11:00 -2°C° 0 mm 2 mps 748 mmHg 94%
    12:00 -2°C° 0 mm 2 mps 748 mmHg 93%
    13:00 -2°C° 0 mm 2 mps 749 mmHg 92%
    14:00 -2°C° 0 mm 2 mps 749 mmHg 91%
    15:00 -2°C° 0 mm 2 mps 749 mmHg 92%
    16:00 -2°C° 0 mm 2 mps 749 mmHg 92%
    17:00 -2°C° 0 mm 2 mps 750 mmHg 92%
    18:00 -3°C° 0 mm 2 mps 750 mmHg 93%
    19:00 -3°C° 0 mm 2 mps 750 mmHg 93%
    20:00 -1°C° 0 mm 1 mps 751 mmHg 94%
    21:00 -1°C° 0 mm 1 mps 751 mmHg 94%
    22:00 -1°C° 0 mm 1 mps 751 mmHg 95%
    23:00 -2°C° 0 mm 1 mps 751 mmHg 95%

    15 December, Saturday

    Time Temperature Precipitation Wind Pressure Humidity
    00:00 -2°C° 0 mm 1 mps 752 mmHg 96%
    01:00 -2°C° 0 mm 1 mps 752 mmHg 96%
    02:00 -2°C° 0 mm 1 mps 752 mmHg 96%
    03:00 -2°C° 0 mm 1 mps 752 mmHg 96%
    04:00 -2°C° 0 mm 1 mps 752 mmHg 96%
    05:00 -1°C° 0 mm 1 mps 752 mmHg 96%
    06:00 -1°C° 0 mm 1 mps 753 mmHg 96%
    07:00 -1°C° 0 mm 1 mps 753 mmHg 96%
    08:00 -1°C° 0 mm 1 mps 753 mmHg 96%
    09:00 -1°C° 0 mm 1 mps 754 mmHg 95%
    10:00 0°C° 0 mm 1 mps 754 mmHg 94%
    11:00 0°C° 0 mm 1 mps 754 mmHg 93%
    12:00 0°C° 0 mm 1 mps 754 mmHg 93%
    13:00 0°C° 0 mm 1 mps 754 mmHg 92%
    14:00 +1°C° 0 mm 1 mps 754 mmHg 91%
    15:00 0°C° 0.1 mm 1 mps 754 mmHg 92%
    16:00 0°C° 0.1 mm 1 mps 754 mmHg 93%
    17:00 -1°C° 0.1 mm 1 mps 755 mmHg 94%
    18:00 -1°C° 0.1 mm 1 mps 755 mmHg 94%
    19:00 -1°C° 0.1 mm 1 mps 755 mmHg 94%
    20:00 -3°C° 0.1 mm 2 mps 755 mmHg 95%
    21:00 -3°C° 0.1 mm 2 mps 755 mmHg 95%
    22:00 -3°C° 0.1 mm 2 mps 755 mmHg 95%
    23:00 -3°C° 0.1 mm 2 mps 755 mmHg 95%

    16 December, Sunday

    Time Temperature Precipitation Wind Pressure Humidity
    00:00 -3°C° 0 mm 2 mps 755 mmHg 95%
    01:00 -3°C° 0 mm 2 mps 755 mmHg 95%
    02:00 -4°C° 0 mm 2 mps 755 mmHg 95%
    03:00 -4°C° 0 mm 2 mps 754 mmHg 95%
    04:00 -4°C° 0 mm 2 mps 754 mmHg 95%
    05:00 -5°C° 0 mm 2 mps 754 mmHg 96%
    06:00 -5°C° 0 mm 2 mps 754 mmHg 96%
    07:00 -5°C° 0 mm 2 mps 754 mmHg 96%
    08:00 -3°C° 0 mm 1 mps 755 mmHg 96%
    09:00 -4°C° 0 mm 2 mps 755 mmHg 95%
    10:00 -4°C° 0 mm 2 mps 755 mmHg 95%
    11:00 -3°C° 0 mm 2 mps 755 mmHg 94%
    12:00 -3°C° 0 mm 2 mps 754 mmHg 93%
    13:00 -3°C° 0 mm 2 mps 754 mmHg 92%
    14:00 -2°C° 0 mm 2 mps 754 mmHg 92%
    15:00 -3°C° 0 mm 2 mps 754 mmHg 92%
    16:00 -3°C° 0 mm 2 mps 754 mmHg 92%
    17:00 -4°C° 0 mm 2 mps 754 mmHg 93%
    18:00 -4°C° 0 mm 2 mps 754 mmHg 93%
    19:00 -4°C° 0 mm 2 mps 754 mmHg 93%
    20:00 -4°C° 0 mm 2 mps 754 mmHg 94%
    21:00 -4°C° 0 mm 2 mps 754 mmHg 94%
    22:00 -4°C° 0 mm 2 mps 754 mmHg 94%
    23:00 -5°C° 0 mm 2 mps 754 mmHg 94%
    Show more